BEIDOU-2 G6

Last updated on Fri Dec 19 2025 00:02:50 GMT+0000 (Coordinated Universal Time)

1 38953U 12059A 25352.80111694 -.00000153 00000+0 00000+0 0 9990 2 38953 3.9636 75.4496 0008246 292.1942 92.3789 1.00269156 48102
UTC large
Height (km)
Speed (km/s)
/
Latitude / Longitude
Inclination (degrees)
Orbital Period (minutes)
Azimuth
Elevation
Range (km)
Doppler Factor

Next 0 passes for location: London (51.5072 / 0.1276)

Sorry there are no passes over London.